Temperature
17 17 17 17 20 21 21 20 20 19 19 17 17 17 18 18 18 16 12 12 12 11 12 12 12 12 12 13 13 13 13 13 13 13 13 13 13 13 13 13 13 13 14 14 14 14 14 14 14
16 17 17 18 21 21 20 20 19 19 17 15 15 15 16 15 12 11 11 11 11 11 11 11 12 12 12 12 12 12 12 12 12 13 13 13 13 13 13 13 13 13 13 13 14 14 14 14 14
16 17 17 20 20 21 20 20 19 17 14 15 15 14 15 13 11 10 11 11 11 11 11 11 11 11 12 12 12 12 12 12 12 12 12 12 13 13 13 13 13 13 13 13 13 13 13 13 14
16 16 18 20 20 20 20 19 18 16 14 14 15 14 11 10 10 10 11 10 10 10 11 11 11 11 11 11 12 12 12 12 12 12 12 12 12 12 13 13 13 13 13 13 13 13 13 13 13
16 17 19 19 19 19 18 17 16 17 16 14 14 15 12 10 10 10 10 10 10 10 10 10 11 11 11 11 11 11 11 11 11 11 12 12 12 12 12 12 12 12 12 12 13 13 13 13 13
16 18 19 19 19 18 17 16 16 17 16 14 13 14 11 10 10 10 10 10 10 10 10 10 10 11 11 11 11 11 11 11 11 11 11 11 11 11 11 12 12 12 12 12 12 12 12 12 12
17 18 19 19 18 18 17 15 16 16 15 13 13 14 10 9 9 9 9 9 9 10 10 10 10 10 10 10 10 11 11 11 11 11 11 11 11 11 11 11 11 12 12 12 12 12 12 12 12
15 18 17 18 18 18 16 14 14 15 15 12 11 13 11 9 9 9 9 9 9 9 9 9 9 10 10 10 10 10 10 10 10 11 11 11 11 11 11 11 11 11 11 11 11 11 11 12 12
14 17 17 17 17 17 15 14 12 11 11 10 9 10 9 9 9 8 8 8 8 9 9 9 9 9 9 9 10 10 10 10 10 10 10 10 10 10 10 10 11 11 11 11 11 11 11 11 11
15 16 17 17 17 16 14 14 12 11 12 10 9 9 9 9 9 8 8 8 8 8 8 8 9 9 9 9 9 9 9 9 9 10 10 10 10 10 10 10 10 10 10 11 11 11 11 11 11
14 15 15 15 14 14 13 12 11 13 13 12 11 9 9 8 8 8 8 8 8 8 8 8 8 8 9 9 9 9 9 9 9 9 9 9 9 9 10 10 10 10 10 10 10 10 10 10 10
14 13 13 13 12 12 13 12 11 11 13 11 10 9 9 8 8 8 8 7 7 7 8 8 8 8 8 8 8 8 8 9 9 9 9 9 9 9 9 9 9 9 9 10 10 10 10 10 10
13 13 11 11 10 11 11 11 11 10 10 10 9 9 9 9 8 7 7 7 7 7 7 7 7 7 8 8 8 8 8 8 8 8 8 8 8 8 8 8 9 9 9 9 9 9 9 9 9
13 12 11 11 11 10 11 11 10 10 9 9 9 8 8 8 7 7 7 7 7 7 7 7 7 7 7 7 7 7 7 7 7 7 7 7 7 8 8 8 8 8 8 8 8 8 9 9 9
11 12 12 11 11 10 11 11 11 10 8 8 8 8 7 7 7 7 7 7 7 6 6 7 7 7 7 7 7 6 7 7 7 7 7 7 7 7 7 7 7 7 8 8 8 8 8 8 8
12 13 13 12 11 10 12 13 13 9 8 8 8 7 7 7 6 6 6 6 6 6 6 6 6 6 6 6 6 6 6 6 6 6 6 6 6 6 6 6 7 7 7 7 7 7 7 7 7
13 14 14 13 11 10 11 13 12 8 8 9 8 7 6 6 6 6 6 6 6 5 5 5 6 6 6 6 5 5 5 5 5 6 6 6 6 6 6 6 6 6 6 6 6 6 6 7 7
13 13 13 13 11 10 11 12 11 8 7 8 8 7 6 6 6 6 6 5 5 5 5 5 5 5 5 5 5 5 5 5 5 5 5 5 5 5 5 5 5 5 5 5 5 6 6 6 6
13 12 13 12 10 10 11 11 11 9 8 8 8 7 6 6 6 5 5 5 5 5 4 4 4 4 4 4 4 4 4 4 4 4 4 4 4 4 4 4 5 5 5 5 5 5 5 5 5
11 12 12 11 9 9 10 10 11 10 8 8 8 7 7 6 5 5 4 4 4 4 4 4 4 4 4 4 4 4 4 4 4 4 4 4 4 4 4 4 4 4 4 4 4 4 4 4 4
10 11 11 11 9 8 9 11 11 10 8 7 7 7 6 6 5 4 4 4 4 4 4 4 4 4 4 3 3 3 3 3 3 3 3 3 3 3 3 3 3 3 3 3 3 3 3 3 3
10 10 9 9 10 11 9 11 12 11 9 8 7 7 6 5 5 4 4 4 4 4 4 4 4 3 3 3 3 3 3 2 2 2 2 3 3 3 3 3 3 2 2 2 2 2 2 2 2
9 8 8 9 9 9 9 9 12 10 9 9 8 7 6 5 4 4 4 4 3 3 3 3 3 3 2 2 2 2 2 2 2 2 2 2 2 2 2 2 2 2 2 2 2 2 2 2 2
7 8 7 8 9 9 10 10 12 11 10 10 9 7 5 5 4 3 3 3 3 2 2 2 2 2 2 2 2 2 2 2 2 2 2 2 2 2 1 1 1 1 1 1 1 1 1 1 1
8 9 9 9 9 10 9 9 10 10 8 8 8 6 5 4 3 3 2 2 2 2 2 2 1 2 1 1 1 1 1 1 1 1 1 1 1 1 1 1 1 1 1 1 1 1 1 1 1
8 9 9 9 10 10 7 8 10 7 6 5 4 4 4 3 3 2 2 2 2 2 1 1 1 1 1 1 1 0 0 0 1 1 1 1 1 1 1 0 0 0 0 0 0 0 0 -0 0
7 8 8 8 8 8 9 9 8 6 5 5 4 4 3 3 2 2 1 1 1 1 1 1 1 0 1 0 0 0 0 0 0 0 -0 -0 0 0 -0 -0 -0 -0 -0 -0 -0 -1 -1 -1 -1
7 7 7 7 7 8 10 9 9 7 6 5 4 3 3 2 1 1 1 1 1 1 1 0 0 -0 -0 -0 -0 -0 -0 -0 -1 -1 -1 -1 -1 -1 -1 -1 -1 -1 -1 -1 -1 -1 -1 -1 -1
6 6 7 7 7 8 9 10 8 7 6 5 4 3 2 1 1 0 0 0 0 0 0 -0 -1 -1 -1 -1 -1 -1 -1 -1 -1 -1 -1 -1 -1 -1 -1 -1 -1 -1 -1 -1 -2 -2 -2 -2 -2
6 6 6 7 6 6 8 9 5 5 4 4 3 2 1 0 -0 -0 -0 -0 -0 -0 -0 -1 -1 -1 -1 -1 -1 -1 -1 -2 -2 -2 -2 -2 -2 -2 -2 -2 -2 -2 -2 -2 -2 -2 -2 -3 -3
Wind_Speed
1 1 2 3 4 5 7 5 4 5 4 3 4 3 3 2 0 2 4 4 4 5 5 6 8 10 11 11 11 11 12 12 12 12 11 11 12 12 12 12 12 12 12 12 13 13 13 13 13
1 1 2 3 6 8 7 7 7 5 4 6 4 3 3 2 3 4 4 3 4 6 6 7 9 10 11 11 11 11 11 12 12 12 12 11 11 12 12 12 12 12 12 13 13 12 13 13 13
2 1 3 4 6 9 7 5 6 5 6 5 4 2 1 2 3 4 3 4 5 6 7 8 9 11 11 11 11 11 11 12 12 12 12 11 11 11 11 12 12 12 12 12 12 12 12 12 12
3 3 3 6 10 8 6 4 5 8 5 3 5 4 3 3 2 3 5 5 6 6 7 9 9 10 11 11 11 11 11 11 12 12 12 12 12 11 11 11 12 11 11 11 12 12 11 12 12
2 3 5 8 10 6 4 3 6 7 6 6 5 4 4 3 4 5 6 5 6 6 7 9 10 10 11 11 11 11 11 11 12 12 13 13 12 12 12 11 11 11 10 11 11 11 11 11 11
4 4 8 11 11 7 5 5 7 6 5 5 6 5 4 5 5 6 6 6 6 7 7 8 9 10 10 10 10 10 10 11 12 12 12 12 12 12 12 12 11 11 10 10 10 10 10 11 11
5 5 9 10 10 9 6 5 7 7 7 6 5 6 5 5 6 6 6 6 7 7 7 7 8 8 9 9 9 9 10 11 11 12 12 12 12 12 12 12 12 11 10 10 10 10 10 11 11
3 4 8 9 10 9 5 5 3 6 5 3 4 5 4 7 7 7 7 7 6 6 6 7 7 7 7 8 9 10 10 11 11 11 12 12 12 11 12 11 11 11 11 10 10 10 10 11 11
4 7 10 10 9 6 6 6 3 2 5 4 2 1 3 11 10 9 7 6 5 5 5 5 6 6 6 7 8 8 9 9 9 9 10 9 8 8 9 12 12 11 11 10 10 10 9 9 10
6 9 12 7 6 5 7 6 6 6 5 5 3 3 7 12 12 11 10 8 7 5 4 4 5 5 6 6 5 5 6 6 7 7 7 6 7 7 8 11 12 11 10 10 9 8 7 5 5
6 9 7 6 5 4 6 5 6 6 6 8 8 10 11 12 12 11 10 9 8 6 5 4 4 4 5 4 4 4 4 5 5 6 6 5 6 5 6 5 6 7 7 6 6 5 5 5 5
6 6 6 4 5 5 5 6 6 7 5 1 5 11 14 14 13 12 11 9 8 7 5 4 4 4 4 4 4 4 4 4 4 5 5 4 4 4 4 4 4 4 4 5 5 4 4 5 5
9 6 5 4 4 4 5 6 5 7 4 2 6 11 13 13 12 11 10 9 8 7 6 5 4 4 4 4 4 3 3 4 4 4 4 4 4 3 4 4 4 4 4 4 4 4 4 4 4
6 6 5 4 5 5 6 6 6 8 5 6 8 10 11 12 12 11 10 10 9 8 7 6 5 5 5 4 3 3 3 3 4 4 4 4 4 3 3 3 3 4 4 4 3 3 3 3 3
4 5 5 6 6 5 5 9 11 8 8 8 9 9 10 11 11 12 12 11 10 9 8 7 6 5 5 5 4 3 3 3 3 4 4 4 4 3 3 3 3 3 3 3 3 3 3 3 3
5 7 8 7 7 6 8 14 9 7 10 10 9 9 10 10 12 11 11 10 10 9 9 7 5 6 5 4 4 4 4 4 3 3 3 4 4 3 3 2 3 3 2 3 3 2 2 3 3
7 10 11 8 7 6 10 12 6 6 9 10 9 9 9 9 10 10 11 10 10 10 9 8 7 7 6 5 4 4 4 4 4 4 3 3 3 2 2 2 2 2 2 2 2 2 2 2 3
10 10 10 10 6 8 11 13 8 7 9 10 9 9 9 10 11 11 10 10 10 9 9 9 8 7 6 5 4 4 3 3 3 3 3 3 3 2 2 2 2 2 2 2 2 3 3 2 2
8 9 10 7 4 8 13 15 14 10 10 11 11 10 11 11 10 9 10 10 9 10 10 10 9 8 7 5 5 4 3 3 2 2 3 3 3 2 2 2 2 1 1 1 2 2 2 2 2
10 11 11 6 3 6 10 15 14 12 12 12 13 12 12 10 9 9 10 10 11 11 11 11 10 9 8 6 5 4 4 3 3 2 3 2 2 2 2 2 2 1 1 1 1 1 1 1 2
12 13 11 8 3 5 7 12 13 11 11 11 11 11 11 11 11 11 11 12 11 11 11 10 10 10 9 7 5 5 3 3 2 3 2 2 2 2 2 2 2 2 1 1 1 0 0 0 1
11 9 9 8 7 6 5 9 10 9 10 11 11 10 10 10 10 10 11 12 12 11 11 11 10 10 9 8 8 8 6 4 3 3 3 3 2 2 2 2 2 2 1 1 1 1 1 1 1
5 3 6 7 8 8 8 8 9 6 9 10 10 10 9 9 10 10 11 11 11 10 10 10 10 10 9 9 9 8 6 4 4 4 4 3 2 2 2 2 2 2 1 1 1 1 1 1 2
5 4 3 4 5 9 11 10 10 7 8 7 7 7 7 7 7 8 8 8 9 9 9 9 10 10 10 9 9 8 7 6 6 5 4 3 2 2 2 2 2 1 1 1 2 1 2 2 2
6 5 3 5 6 8 5 9 9 3 3 4 4 4 4 5 6 7 8 8 8 9 9 9 10 10 10 10 9 8 7 7 7 6 5 4 3 2 2 2 2 1 1 1 1 2 2 2 2
10 9 7 6 7 5 5 9 6 1 1 2 2 3 3 3 4 6 7 7 8 9 10 10 10 10 9 9 8 8 7 6 5 6 5 5 3 3 3 2 2 2 2 2 2 1 1 2 2
8 9 6 4 4 6 7 6 6 2 1 1 1 1 2 2 3 4 5 6 7 8 9 10 10 9 9 9 8 7 7 6 5 5 5 4 3 3 3 3 2 2 2 2 2 2 2 2 2
3 5 5 6 5 8 8 8 5 4 3 1 1 2 2 2 2 2 4 5 5 6 7 8 9 9 8 8 7 6 6 5 5 5 5 4 4 3 3 3 3 3 2 2 2 2 2 2 2
6 6 6 6 6 6 7 5 1 3 1 2 3 2 2 2 2 2 3 3 4 5 6 7 8 7 7 7 7 6 5 5 5 4 4 4 4 4 4 3 3 3 3 3 3 3 3 3 3
6 7 8 7 6 6 7 5 3 1 1 1 2 2 1 1 1 1 2 3 4 4 5 6 6 7 6 6 6 6 5 5 5 4 4 4 4 4 3 3 3 3 3 3 4 4 4 4 4
Wind_Direction
327 196 215 218 211 216 226 209 194 167 167 142 137 162 175 165 155 90 86 106 114 123 118 107 93 90 86 82 79 75 72 70 68 67 66 65 66 64 62 64 64 64 66 68 67 67 68 69 69
166 191 208 221 227 222 218 208 201 187 142 133 133 143 151 141 61 91 111 108 118 117 117 109 96 92 88 83 79 75 74 71 69 68 65 64 65 65 64 63 63 62 63 66 67 67 67 69 68
152 212 211 208 226 230 216 192 192 147 137 156 150 136 140 117 108 115 104 124 121 111 112 105 97 95 89 83 78 76 74 72 70 69 65 64 63 65 65 63 62 62 62 64 66 66 67 67 67
179 181 207 225 224 230 236 187 161 152 156 169 162 141 121 65 98 108 117 123 118 107 109 106 97 96 90 84 80 76 74 72 70 69 67 64 64 64 66 64 61 62 63 64 65 65 67 67 66
182 203 208 223 230 226 228 206 171 177 174 173 176 161 137 105 90 112 124 122 114 103 103 106 99 96 91 86 82 78 75 72 69 69 68 67 66 66 63 62 60 61 64 64 64 64 67 66 67
178 207 222 226 224 219 213 194 183 199 183 168 177 164 136 125 126 125 125 118 106 100 97 100 98 93 89 86 81 80 76 72 69 67 66 66 64 63 62 59 59 59 62 64 63 63 64 65 66
202 207 228 230 228 224 212 185 199 203 194 182 180 167 145 153 142 134 128 114 101 95 91 89 91 94 93 89 84 81 77 73 70 66 64 66 65 61 58 56 55 55 59 64 62 61 63 63 64
206 204 223 224 225 228 191 171 194 208 200 148 177 187 169 165 150 139 127 115 105 95 91 87 85 85 87 92 86 81 78 76 74 69 65 65 65 61 55 54 52 52 54 59 62 61 62 62 61
196 217 226 222 222 218 175 176 157 142 141 149 172 79 99 140 147 144 136 125 116 103 93 91 87 84 83 83 89 87 82 78 79 74 68 66 64 60 56 51 48 48 50 55 59 61 63 63 62
199 222 229 227 221 206 177 188 168 165 175 186 181 144 135 147 156 159 161 160 153 138 119 100 97 90 85 81 83 91 87 83 76 74 70 66 64 59 59 56 50 46 45 49 52 55 58 55 57
202 223 222 219 207 196 182 183 176 189 209 213 201 173 158 161 167 172 174 174 168 155 139 118 106 100 92 87 83 83 87 84 79 74 70 70 68 65 58 57 50 44 39 39 39 45 48 52 51
201 220 216 209 193 190 193 180 189 214 229 212 195 163 163 172 179 182 180 177 170 161 152 137 122 110 99 94 91 86 91 87 82 78 71 71 68 63 57 52 44 39 34 30 30 33 47 52 55
212 212 208 204 171 181 184 198 214 223 224 157 151 161 173 180 184 185 181 177 174 171 162 154 142 127 114 103 96 90 92 97 94 89 75 70 72 67 62 54 48 42 35 34 32 35 41 48 54
207 202 202 203 198 199 204 225 230 235 202 180 173 180 186 188 186 183 184 184 183 180 172 164 156 140 130 118 112 109 102 105 107 97 87 78 74 72 68 63 49 43 35 30 29 34 42 44 52
179 195 220 221 210 202 204 239 231 225 190 194 192 193 194 195 191 192 191 189 187 183 174 170 162 149 139 129 125 118 114 116 112 102 98 87 81 79 75 73 60 44 39 36 34 36 45 49 50
189 214 230 214 204 203 215 247 224 196 193 206 203 199 199 200 200 199 195 192 189 183 177 173 163 157 147 135 135 127 127 123 118 112 106 95 86 84 83 81 71 51 44 44 41 35 37 40 36
209 228 235 222 202 200 219 248 219 186 203 214 210 205 204 203 204 202 198 194 191 187 180 176 170 164 154 142 137 129 126 123 122 120 111 105 96 92 88 83 76 66 56 56 48 38 32 30 30
219 228 235 231 200 207 225 243 236 206 216 225 221 214 210 210 210 204 199 194 190 187 183 179 173 167 155 145 138 131 122 117 116 119 119 119 113 109 97 92 84 71 72 62 55 48 37 25 17
231 233 243 242 205 221 238 249 247 228 224 230 228 223 221 220 213 202 197 192 188 186 186 184 179 173 166 163 163 160 160 148 130 119 123 127 125 125 115 107 105 86 82 70 65 62 57 26 2
229 240 248 250 214 237 257 260 254 237 230 231 229 226 223 220 208 201 198 194 193 191 189 188 186 181 180 177 172 170 157 153 139 132 128 132 133 136 135 132 130 130 115 102 83 72 51 9 350
230 235 243 249 249 236 271 264 243 233 226 230 233 232 228 218 211 203 199 198 196 195 193 191 189 186 184 174 158 146 143 148 158 156 149 148 147 142 140 148 143 149 159 164 166 121 267 281 333
236 231 236 240 245 249 234 270 248 228 227 229 230 228 227 221 214 206 202 201 200 199 195 193 189 188 185 177 176 173 176 179 183 174 169 159 162 155 149 148 151 161 173 182 196 215 250 253 265
228 201 217 229 240 257 232 252 260 217 237 236 231 228 227 223 215 210 206 203 200 197 195 193 190 190 187 186 185 182 180 176 166 166 167 162 161 162 158 159 159 165 176 182 197 216 234 251 257
156 138 159 202 227 247 233 233 262 230 238 240 228 226 227 224 218 213 208 202 198 193 193 192 190 191 189 190 189 188 182 176 173 175 177 176 173 172 169 170 167 170 178 188 201 215 229 240 244
185 189 213 218 221 242 197 229 254 242 241 247 248 245 238 225 218 210 201 198 197 194 193 192 191 191 190 191 192 191 188 184 183 182 185 183 184 189 188 180 182 184 187 194 200 209 227 236 242
200 211 219 235 245 251 205 234 250 192 239 253 273 270 249 228 219 212 204 198 196 193 192 191 192 192 191 192 193 192 189 188 188 187 189 191 192 193 191 192 195 194 193 197 204 210 226 235 241
193 213 237 257 268 259 241 246 267 199 220 266 291 297 265 240 228 213 203 198 195 192 191 191 191 190 191 191 188 190 189 189 188 186 189 191 190 187 187 193 198 205 205 204 210 221 225 233 243
227 185 184 211 234 250 254 249 243 204 218 258 293 296 286 260 228 209 200 198 193 192 190 188 189 189 188 187 187 188 189 187 183 183 188 189 189 187 191 197 203 209 215 217 216 225 229 236 247
179 193 210 216 239 244 258 256 182 192 208 248 274 273 272 261 231 209 199 190 185 182 181 184 186 183 183 184 183 182 183 181 180 182 185 186 185 189 196 201 207 215 221 226 226 225 229 237 247
219 213 203 219 230 231 254 262 92 153 304 306 305 311 301 265 228 208 189 177 173 174 177 181 183 182 182 179 178 179 179 180 182 185 187 187 191 195 200 203 211 219 226 230 233 234 233 236 243
Height
1515 1516 1517 1519 1518 1515 1514 1515 1515 1519 1521 1524 1525 1525 1525 1526 1529 1535 1536 1534 1536 1538 1539 1540 1541 1542 1542 1542 1542 1542 1543 1543 1542 1542 1542 1542 1541 1541 1541 1540 1540 1540 1540 1539 1539 1538 1538 1538 1538
1515 1516 1519 1519 1514 1513 1514 1513 1516 1517 1522 1525 1526 1527 1527 1529 1532 1533 1533 1534 1536 1537 1539 1540 1541 1542 1542 1542 1543 1543 1543 1543 1543 1542 1542 1542 1541 1541 1541 1541 1540 1540 1540 1540 1539 1539 1539 1539 1539
1514 1516 1519 1515 1512 1509 1510 1513 1514 1521 1524 1525 1526 1528 1529 1531 1532 1532 1532 1534 1536 1537 1539 1540 1541 1542 1542 1542 1543 1543 1543 1543 1543 1542 1542 1542 1541 1541 1541 1541 1541 1540 1540 1540 1540 1539 1539 1539 1539
1515 1517 1518 1513 1510 1510 1510 1513 1517 1521 1524 1525 1526 1528 1530 1531 1531 1531 1532 1534 1536 1538 1539 1540 1541 1541 1542 1542 1543 1543 1543 1543 1543 1542 1542 1542 1541 1541 1541 1540 1540 1540 1540 1540 1540 1540 1539 1539 1539
1514 1516 1513 1511 1510 1511 1514 1516 1518 1518 1521 1524 1525 1526 1529 1530 1529 1530 1532 1534 1536 1537 1539 1540 1540 1541 1542 1542 1542 1543 1543 1543 1543 1542 1542 1542 1541 1541 1541 1540 1540 1540 1540 1540 1540 1540 1540 1540 1539
1515 1513 1510 1508 1508 1511 1515 1517 1518 1518 1520 1523 1525 1526 1528 1529 1529 1530 1532 1534 1536 1537 1538 1539 1540 1541 1541 1542 1542 1542 1543 1542 1542 1542 1542 1542 1541 1541 1540 1540 1540 1539 1539 1539 1539 1540 1540 1539 1539
1513 1510 1507 1505 1507 1510 1513 1516 1517 1517 1519 1522 1523 1525 1527 1527 1528 1529 1531 1533 1535 1536 1537 1538 1539 1540 1541 1541 1542 1542 1542 1542 1542 1542 1542 1541 1541 1541 1540 1540 1540 1539 1539 1539 1539 1539 1539 1539 1539
1510 1510 1507 1506 1507 1508 1513 1515 1516 1517 1519 1522 1523 1524 1525 1526 1526 1528 1530 1532 1534 1535 1536 1537 1538 1539 1540 1540 1541 1541 1542 1542 1541 1541 1541 1541 1541 1540 1540 1539 1539 1539 1539 1539 1539 1539 1539 1539 1539
1509 1509 1503 1504 1505 1507 1512 1514 1516 1517 1519 1520 1521 1523 1523 1523 1525 1527 1529 1531 1533 1534 1535 1536 1537 1537 1538 1539 1540 1540 1541 1541 1541 1541 1540 1540 1540 1540 1539 1539 1539 1539 1538 1538 1538 1538 1538 1539 1539
1507 1503 1501 1504 1505 1507 1511 1512 1515 1516 1518 1519 1520 1520 1521 1522 1523 1525 1526 1528 1530 1531 1533 1534 1535 1536 1537 1538 1538 1539 1539 1540 1540 1540 1540 1540 1539 1539 1539 1538 1538 1538 1538 1538 1538 1538 1538 1538 1539
1504 1501 1503 1505 1507 1508 1510 1512 1514 1514 1514 1515 1516 1517 1518 1520 1522 1523 1525 1526 1528 1529 1531 1532 1533 1534 1535 1536 1537 1537 1538 1538 1538 1538 1538 1538 1538 1538 1538 1538 1538 1537 1537 1537 1537 1537 1537 1538 1538
1503 1503 1504 1505 1507 1508 1509 1510 1513 1512 1512 1513 1514 1515 1516 1517 1519 1520 1522 1524 1526 1527 1529 1530 1531 1532 1533 1534 1535 1536 1536 1537 1537 1537 1537 1537 1537 1537 1537 1537 1536 1536 1536 1536 1536 1536 1536 1536 1537
1501 1502 1504 1506 1506 1507 1508 1509 1510 1510 1511 1511 1511 1513 1514 1515 1517 1519 1521 1523 1524 1525 1526 1528 1529 1531 1531 1532 1533 1534 1534 1535 1535 1536 1536 1536 1536 1536 1535 1535 1535 1535 1535 1534 1535 1535 1535 1535 1535
1500 1502 1503 1505 1505 1506 1507 1507 1508 1506 1508 1509 1509 1510 1511 1513 1514 1516 1518 1519 1521 1522 1524 1525 1527 1528 1529 1530 1531 1532 1532 1533 1533 1534 1534 1534 1534 1534 1534 1534 1534 1534 1533 1533 1533 1533 1533 1534 1534
1501 1501 1502 1503 1504 1505 1506 1503 1502 1503 1505 1506 1507 1508 1509 1511 1512 1513 1514 1516 1518 1519 1521 1523 1524 1525 1527 1528 1529 1530 1530 1531 1531 1532 1532 1532 1533 1533 1533 1533 1532 1532 1532 1532 1532 1532 1532 1532 1532
1499 1497 1495 1497 1501 1503 1505 1493 1496 1500 1502 1503 1504 1505 1506 1507 1509 1510 1512 1513 1515 1517 1518 1520 1521 1523 1524 1525 1527 1527 1528 1529 1529 1530 1530 1530 1531 1531 1531 1531 1531 1531 1531 1530 1531 1531 1531 1531 1531
1493 1490 1488 1493 1498 1499 1498 1490 1494 1497 1499 1499 1501 1502 1503 1504 1505 1506 1508 1510 1512 1513 1515 1516 1518 1520 1521 1523 1524 1525 1525 1526 1527 1527 1528 1528 1529 1529 1529 1529 1529 1529 1529 1529 1529 1529 1529 1529 1529
1485 1486 1486 1488 1493 1497 1494 1489 1492 1496 1497 1497 1497 1498 1499 1500 1500 1502 1504 1506 1508 1510 1512 1513 1515 1516 1518 1519 1520 1522 1523 1524 1524 1525 1526 1526 1527 1527 1527 1527 1527 1527 1527 1527 1527 1527 1527 1527 1527
1485 1485 1484 1487 1493 1494 1489 1487 1487 1491 1493 1493 1493 1494 1495 1495 1497 1499 1500 1502 1504 1506 1508 1509 1511 1512 1514 1515 1516 1518 1519 1520 1521 1522 1523 1523 1524 1525 1525 1525 1525 1525 1525 1525 1525 1525 1525 1525 1525
1487 1485 1484 1488 1494 1493 1487 1484 1483 1485 1487 1487 1488 1488 1490 1491 1493 1494 1496 1497 1499 1501 1503 1505 1506 1508 1509 1511 1513 1515 1516 1517 1518 1519 1520 1521 1521 1522 1522 1523 1523 1523 1523 1523 1523 1523 1523 1523 1523
1485 1484 1483 1486 1492 1493 1490 1477 1476 1478 1481 1483 1483 1484 1485 1486 1487 1488 1490 1492 1494 1495 1497 1499 1501 1504 1506 1508 1509 1511 1513 1514 1515 1516 1517 1518 1518 1519 1520 1520 1521 1521 1521 1521 1521 1521 1521 1521 1522
1481 1484 1486 1488 1487 1481 1486 1473 1464 1470 1475 1477 1478 1479 1479 1481 1482 1483 1484 1486 1488 1490 1493 1495 1497 1500 1502 1504 1506 1507 1508 1510 1511 1512 1514 1514 1515 1516 1517 1517 1518 1518 1518 1519 1519 1519 1519 1519 1519
1481 1485 1487 1487 1485 1483 1483 1480 1460 1468 1468 1469 1471 1473 1475 1476 1477 1478 1480 1482 1484 1486 1489 1491 1493 1496 1498 1500 1502 1503 1505 1507 1508 1510 1511 1512 1513 1513 1514 1514 1515 1515 1516 1516 1516 1516 1516 1516 1517
1485 1487 1488 1487 1484 1481 1473 1474 1456 1459 1460 1463 1466 1469 1471 1472 1473 1475 1476 1478 1480 1482 1484 1487 1489 1491 1493 1495 1497 1499 1501 1503 1504 1506 1507 1508 1509 1510 1511 1511 1512 1512 1513 1513 1513 1513 1513 1514 1514
1483 1480 1478 1478 1477 1466 1472 1471 1457 1458 1461 1463 1465 1467 1468 1469 1470 1470 1472 1473 1475 1477 1479 1482 1484 1486 1489 1491 1493 1495 1498 1500 1501 1502 1504 1505 1505 1506 1507 1508 1509 1509 1510 1510 1510 1510 1510 1510 1511
1478 1475 1472 1471 1463 1459 1473 1465 1455 1461 1464 1465 1466 1466 1466 1466 1466 1467 1468 1469 1471 1473 1475 1478 1480 1482 1485 1487 1490 1492 1495 1496 1498 1499 1500 1501 1502 1503 1504 1505 1505 1506 1506 1507 1507 1507 1507 1507 1507
1476 1474 1473 1473 1472 1469 1457 1457 1458 1461 1462 1464 1464 1464 1464 1464 1464 1464 1465 1466 1468 1469 1471 1474 1476 1478 1481 1483 1486 1488 1490 1492 1494 1495 1497 1498 1499 1500 1501 1501 1502 1503 1503 1503 1503 1503 1503 1503 1503
1475 1473 1476 1473 1470 1461 1450 1451 1449 1454 1458 1461 1462 1462 1462 1462 1462 1462 1463 1464 1465 1467 1469 1471 1473 1475 1477 1480 1482 1484 1487 1489 1490 1492 1493 1495 1495 1496 1497 1498 1498 1499 1500 1500 1500 1500 1500 1500 1500
1475 1476 1471 1468 1467 1460 1451 1445 1450 1453 1457 1458 1460 1461 1461 1461 1461 1461 1461 1462 1463 1465 1466 1468 1470 1472 1474 1476 1479 1481 1483 1485 1487 1488 1490 1491 1492 1493 1494 1494 1495 1495 1496 1496 1496 1496 1496 1496 1496
1471 1468 1469 1468 1466 1466 1456 1450 1456 1456 1458 1459 1460 1460 1460 1459 1459 1459 1459 1460 1461 1462 1464 1465 1467 1469 1471 1473 1475 1477 1479 1481 1483 1484 1486 1487 1488 1489 1490 1491 1491 1492 1492 1492 1492 1492 1492 1492 1492